Year,Month,Day,Hour,Minute,Value (Times are PST for temperature in C)
2013,03,25,08,35,5.70
2013,03,25,08,36,5.70
2013,03,25,08,37,5.80
2013,03,25,08,38,5.80
2013,03,25,08,39,5.80
2013,03,25,08,40,5.80
2013,03,25,08,41,5.80
2013,03,25,08,42,5.80
2013,03,25,08,43,5.90
2013,03,25,08,44,5.90
2013,03,25,08,45,5.90
2013,03,25,08,46,5.90
2013,03,25,08,47,5.90
2013,03,25,08,48,6.00
2013,03,25,08,49,6.00
2013,03,25,08,50,6.00
2013,03,25,08,51,6.00
2013,03,25,08,52,6.10
2013,03,25,08,53,6.10
2013,03,25,08,54,6.10
2013,03,25,08,55,6.10
2013,03,25,08,56,6.20
2013,03,25,08,57,6.20
2013,03,25,08,58,6.20
2013,03,25,08,59,6.20
2013,03,25,09,00,6.30
2013,03,25,09,01,6.30
2013,03,25,09,02,6.40
2013,03,25,09,03,6.40
2013,03,25,09,04,6.40
2013,03,25,09,05,6.50
2013,03,25,09,06,6.50
2013,03,25,09,07,6.60
2013,03,25,09,08,6.60
2013,03,25,09,09,6.70
2013,03,25,09,10,6.70
2013,03,25,09,11,6.80
2013,03,25,09,12,6.80
2013,03,25,09,13,6.90
2013,03,25,09,14,7.00
2013,03,25,09,15,7.20
2013,03,25,09,16,7.20
2013,03,25,09,17,7.30
2013,03,25,09,18,7.40
2013,03,25,09,19,7.50
2013,03,25,09,20,7.50
2013,03,25,09,21,7.60
2013,03,25,09,22,7.60
2013,03,25,09,23,7.70
2013,03,25,09,24,7.70
2013,03,25,09,25,7.80
2013,03,25,09,26,7.80
2013,03,25,09,27,7.80
2013,03,25,09,28,7.90
2013,03,25,09,29,7.90
2013,03,25,09,30,7.90
2013,03,25,09,31,8.00
2013,03,25,09,32,8.00
2013,03,25,09,33,8.10
2013,03,25,09,34,8.10
2013,03,25,09,35,8.20
2013,03,25,09,36,8.20
2013,03,25,09,37,8.30
2013,03,25,09,38,8.30
2013,03,25,09,39,8.40
2013,03,25,09,40,8.30
2013,03,25,09,41,8.30
2013,03,25,09,42,8.30
2013,03,25,09,43,8.30
2013,03,25,09,44,8.30
2013,03,25,09,45,8.30
2013,03,25,09,46,8.30
2013,03,25,09,47,8.30
2013,03,25,09,48,8.40
2013,03,25,09,49,8.40
2013,03,25,09,50,8.40
2013,03,25,09,51,8.40
2013,03,25,09,52,8.40
2013,03,25,09,53,8.40
2013,03,25,09,54,8.40
2013,03,25,09,55,8.40
2013,03,25,09,56,8.30
2013,03,25,09,57,8.30
2013,03,25,09,58,8.30
2013,03,25,09,59,8.30
2013,03,25,10,00,8.30
2013,03,25,10,01,8.30
2013,03,25,10,02,8.20
2013,03,25,10,03,8.20
2013,03,25,10,04,8.20
2013,03,25,10,05,8.20
2013,03,25,10,06,8.10
2013,03,25,10,07,8.10
2013,03,25,10,08,8.10
2013,03,25,10,09,8.10
2013,03,25,10,10,8.10
2013,03,25,10,11,8.10
2013,03,25,10,12,8.10
2013,03,25,10,13,8.10
2013,03,25,10,14,8.00
2013,03,25,10,15,8.10
2013,03,25,10,16,8.10
2013,03,25,10,17,8.10
2013,03,25,10,18,8.10
2013,03,25,10,19,8.20
2013,03,25,10,20,8.20
2013,03,25,10,21,8.30
2013,03,25,10,22,8.40
2013,03,25,10,23,8.40
2013,03,25,10,24,8.50
2013,03,25,10,25,8.50
2013,03,25,10,26,8.50
2013,03,25,10,27,8.50
2013,03,25,10,28,8.40
2013,03,25,10,29,8.40
2013,03,25,10,30,8.30
2013,03,25,10,31,8.30
2013,03,25,10,32,8.30
2013,03,25,10,33,8.20
2013,03,25,10,34,8.20
2013,03,25,10,35,8.20
2013,03,25,10,36,8.10
2013,03,25,10,37,8.10
2013,03,25,10,38,8.10
2013,03,25,10,39,8.10
2013,03,25,10,40,8.10
2013,03,25,10,41,8.20
2013,03,25,10,42,8.20
2013,03,25,10,43,8.30
2013,03,25,10,44,8.30
2013,03,25,10,45,8.40
2013,03,25,10,46,8.40
2013,03,25,10,47,8.40
2013,03,25,10,48,8.40
2013,03,25,10,49,8.40
2013,03,25,10,50,8.40
2013,03,25,10,51,8.30
2013,03,25,10,52,8.30
2013,03,25,10,53,8.30
2013,03,25,10,54,8.20
2013,03,25,10,55,8.20
2013,03,25,10,56,8.20
2013,03,25,10,57,8.20
2013,03,25,10,58,8.10
2013,03,25,10,59,8.10
2013,03,25,11,00,8.10
2013,03,25,11,01,8.10
2013,03,25,11,02,8.00
2013,03,25,11,03,8.00
2013,03,25,11,04,7.90
2013,03,25,11,05,7.90
2013,03,25,11,06,7.90
2013,03,25,11,07,7.90
2013,03,25,11,08,7.90
2013,03,25,11,09,7.90
2013,03,25,11,10,8.00
2013,03,25,11,11,8.00
2013,03,25,11,12,7.90
2013,03,25,11,13,7.90
2013,03,25,11,14,8.00
2013,03,25,11,15,8.00
2013,03,25,11,16,8.00
2013,03,25,11,17,8.10
2013,03,25,11,18,8.10
2013,03,25,11,19,8.00
2013,03,25,11,20,8.00
2013,03,25,11,21,7.90
2013,03,25,11,22,8.00
2013,03,25,11,23,8.00
2013,03,25,11,24,8.00
2013,03,25,11,25,8.10
2013,03,25,11,26,8.10
2013,03,25,11,27,8.20
2013,03,25,11,28,8.20
2013,03,25,11,29,8.20
2013,03,25,11,30,8.30
2013,03,25,11,31,8.30
2013,03,25,11,32,8.30
2013,03,25,11,33,8.30
2013,03,25,11,34,8.30
2013,03,25,11,35,8.30
2013,03,25,11,36,8.30
2013,03,25,11,37,8.30
2013,03,25,11,38,8.30
2013,03,25,11,39,8.30
2013,03,25,11,40,8.30
2013,03,25,11,41,8.30
2013,03,25,11,42,8.40
2013,03,25,11,43,8.40
2013,03,25,11,44,8.40
2013,03,25,11,45,8.40
2013,03,25,11,46,8.40
2013,03,25,11,47,8.40
2013,03,25,11,48,8.40
2013,03,25,11,49,8.40
2013,03,25,11,50,8.40
2013,03,25,11,51,8.40
2013,03,25,11,52,8.40
2013,03,25,11,53,8.40
2013,03,25,11,54,8.40
2013,03,25,11,55,8.30
2013,03,25,11,56,8.40
2013,03,25,11,57,8.40
2013,03,25,11,58,8.40
2013,03,25,11,59,8.30
2013,03,25,12,00,8.30
2013,03,25,12,01,8.30
2013,03,25,12,02,8.30
2013,03,25,12,03,8.30
2013,03,25,12,04,8.40
2013,03,25,12,05,8.50
2013,03,25,12,06,8.50
2013,03,25,12,07,8.60
2013,03,25,12,08,8.60
2013,03,25,12,09,8.60
2013,03,25,12,10,8.70
2013,03,25,12,11,8.70
2013,03,25,12,12,8.70
2013,03,25,12,13,8.70
2013,03,25,12,14,8.70
2013,03,25,12,15,8.70
2013,03,25,12,16,8.70
2013,03,25,12,17,8.70
2013,03,25,12,18,8.80
2013,03,25,12,19,8.80
2013,03,25,12,20,8.80
2013,03,25,12,21,8.80
2013,03,25,12,22,8.90
2013,03,25,12,23,8.90
2013,03,25,12,24,8.80
2013,03,25,12,25,8.80
2013,03,25,12,26,8.80
2013,03,25,12,27,8.80
2013,03,25,12,28,8.80
2013,03,25,12,29,8.80
2013,03,25,12,30,8.80
2013,03,25,12,31,8.80
2013,03,25,12,32,8.80
2013,03,25,12,33,8.80
2013,03,25,12,34,8.80
2013,03,25,12,35,8.70
2013,03,25,12,36,8.70
2013,03,25,12,37,8.60
2013,03,25,12,38,8.60
2013,03,25,12,39,8.70
2013,03,25,12,40,8.70
2013,03,25,12,41,8.70
2013,03,25,12,42,8.80
2013,03,25,12,43,8.80
2013,03,25,12,44,8.90
2013,03,25,12,45,8.80
2013,03,25,12,46,8.90
2013,03,25,12,47,8.90
2013,03,25,12,48,8.90
2013,03,25,12,49,8.90
2013,03,25,12,50,8.90
2013,03,25,12,51,8.90
2013,03,25,12,52,8.90
2013,03,25,12,53,8.80
2013,03,25,12,54,8.80
2013,03,25,12,55,8.80
2013,03,25,12,56,8.80
2013,03,25,12,57,8.70
2013,03,25,12,58,8.70
2013,03,25,12,59,8.80
2013,03,25,13,00,8.80
2013,03,25,13,01,8.80
2013,03,25,13,02,8.90
2013,03,25,13,03,8.90
2013,03,25,13,04,8.90
2013,03,25,13,05,8.90
2013,03,25,13,06,8.90
2013,03,25,13,07,9.00
2013,03,25,13,08,9.00
2013,03,25,13,09,9.10
2013,03,25,13,10,9.10
2013,03,25,13,11,9.10
2013,03,25,13,12,9.20
2013,03,25,13,13,9.20
2013,03,25,13,14,9.20
2013,03,25,13,15,9.20
2013,03,25,13,16,9.10
2013,03,25,13,17,9.10
2013,03,25,13,18,9.10
2013,03,25,13,19,9.10
2013,03,25,13,20,9.10
2013,03,25,13,21,9.10
2013,03,25,13,22,9.20
2013,03,25,13,23,9.20
2013,03,25,13,24,9.20
2013,03,25,13,25,9.20
2013,03,25,13,26,9.20
2013,03,25,13,27,9.10
2013,03,25,13,28,9.00
2013,03,25,13,29,8.90
2013,03,25,13,30,8.80
2013,03,25,13,31,8.80
2013,03,25,13,32,8.90
2013,03,25,13,33,8.90
2013,03,25,13,34,9.00
2013,03,25,13,35,9.00
2013,03,25,13,36,9.00
2013,03,25,13,37,9.10
2013,03,25,13,38,9.10
2013,03,25,13,39,9.10
2013,03,25,13,40,9.10
2013,03,25,13,41,9.10
2013,03,25,13,42,9.10
2013,03,25,13,43,9.10
2013,03,25,13,44,9.10
2013,03,25,13,45,9.20
2013,03,25,13,46,9.20
2013,03,25,13,47,9.20
2013,03,25,13,48,9.20
2013,03,25,13,49,9.30
2013,03,25,13,50,9.30
2013,03,25,13,51,9.30
2013,03,25,13,52,9.30
2013,03,25,13,53,9.30
2013,03,25,13,54,9.30
2013,03,25,13,55,9.30
2013,03,25,13,56,9.30
2013,03,25,13,57,9.40
2013,03,25,13,58,9.40
2013,03,25,13,59,9.50
2013,03,25,14,00,9.50
2013,03,25,14,01,9.60
2013,03,25,14,02,9.60
2013,03,25,14,03,9.70
2013,03,25,14,04,9.80
2013,03,25,14,05,9.80
2013,03,25,14,06,9.90
2013,03,25,14,07,9.90
2013,03,25,14,08,9.90
2013,03,25,14,09,9.90
2013,03,25,14,10,9.90
2013,03,25,14,11,9.80
2013,03,25,14,12,9.80
2013,03,25,14,13,9.80
2013,03,25,14,14,9.70
2013,03,25,14,15,9.60
2013,03,25,14,16,9.60
2013,03,25,14,17,9.50
2013,03,25,14,18,9.40
2013,03,25,14,19,9.40
2013,03,25,14,20,9.40
2013,03,25,14,21,9.40
2013,03,25,14,22,9.50
2013,03,25,14,23,9.60
2013,03,25,14,24,9.60
2013,03,25,14,25,9.70
2013,03,25,14,26,9.70
2013,03,25,14,27,9.80
2013,03,25,14,28,9.80
2013,03,25,14,29,9.80
2013,03,25,14,30,9.80
2013,03,25,14,31,9.80
2013,03,25,14,32,9.90
2013,03,25,14,33,9.80
2013,03,25,14,34,9.80
2013,03,25,14,35,9.80
2013,03,25,14,36,9.70
2013,03,25,14,37,9.70
2013,03,25,14,38,9.70
2013,03,25,14,39,9.70
2013,03,25,14,40,9.70
2013,03,25,14,41,9.70
2013,03,25,14,42,9.80
2013,03,25,14,43,9.80
2013,03,25,14,44,9.80
2013,03,25,14,45,9.90
2013,03,25,14,46,10.00
2013,03,25,14,47,10.00
2013,03,25,14,48,10.10
2013,03,25,14,49,10.10
2013,03,25,14,50,10.10
2013,03,25,14,51,10.10
2013,03,25,14,52,10.10
2013,03,25,14,53,10.10
2013,03,25,14,54,10.10
2013,03,25,14,55,10.10
2013,03,25,14,56,10.10
2013,03,25,14,57,10.10
2013,03,25,14,58,10.00
2013,03,25,14,59,10.00
2013,03,25,15,00,9.90
2013,03,25,15,01,9.90
2013,03,25,15,02,9.90
2013,03,25,15,03,9.90
2013,03,25,15,04,10.00
2013,03,25,15,05,10.00
2013,03,25,15,06,10.10
2013,03,25,15,07,10.10
2013,03,25,15,08,10.20
2013,03,25,15,09,10.20
2013,03,25,15,10,10.20
2013,03,25,15,11,10.20
2013,03,25,15,12,10.30
2013,03,25,15,13,10.30
2013,03,25,15,14,10.40
2013,03,25,15,15,10.40
2013,03,25,15,16,10.40
2013,03,25,15,17,10.40
2013,03,25,15,18,10.30
2013,03,25,15,19,10.20
2013,03,25,15,20,10.20
2013,03,25,15,21,10.10
2013,03,25,15,22,10.10
2013,03,25,15,23,10.10
2013,03,25,15,24,10.10
2013,03,25,15,25,10.10
2013,03,25,15,26,10.10
2013,03,25,15,27,10.10
2013,03,25,15,28,10.10
2013,03,25,15,29,10.00
2013,03,25,15,30,10.00
2013,03,25,15,31,10.00
2013,03,25,15,32,10.00
2013,03,25,15,33,10.00
2013,03,25,15,34,9.90
2013,03,25,15,35,9.90
2013,03,25,15,36,9.80
2013,03,25,15,37,9.80
2013,03,25,15,38,9.80
2013,03,25,15,39,9.80
2013,03,25,15,40,9.80
2013,03,25,15,41,9.70
2013,03,25,15,42,9.70
2013,03,25,15,43,9.70
2013,03,25,15,44,9.70
2013,03,25,15,45,9.70
2013,03,25,15,46,9.70
2013,03,25,15,47,9.70
2013,03,25,15,48,9.70
2013,03,25,15,49,9.70
2013,03,25,15,50,9.70
2013,03,25,15,51,9.70
2013,03,25,15,52,9.70
2013,03,25,15,53,9.70
2013,03,25,15,54,9.60
2013,03,25,15,55,9.60
2013,03,25,15,56,9.60
2013,03,25,15,57,9.60
2013,03,25,15,58,9.70
2013,03,25,15,59,9.70
2013,03,25,16,00,9.70
2013,03,25,16,01,9.80
2013,03,25,16,02,9.80
2013,03,25,16,03,9.80
2013,03,25,16,04,9.80
2013,03,25,16,05,9.80
2013,03,25,16,06,9.80
2013,03,25,16,07,9.80
2013,03,25,16,08,9.70
2013,03,25,16,09,9.70
2013,03,25,16,10,9.70
2013,03,25,16,11,9.70
2013,03,25,16,12,9.70
2013,03,25,16,13,9.60
2013,03,25,16,14,9.60
2013,03,25,16,15,9.60
2013,03,25,16,16,9.60
2013,03,25,16,17,9.60
2013,03,25,16,18,9.60
2013,03,25,16,19,9.60
2013,03,25,16,20,9.60
2013,03,25,16,21,9.70
2013,03,25,16,22,9.70
2013,03,25,16,23,9.70
2013,03,25,16,24,9.80
2013,03,25,16,25,9.80
2013,03,25,16,26,9.80
2013,03,25,16,27,9.80
2013,03,25,16,28,9.80
2013,03,25,16,29,9.70
2013,03,25,16,30,9.70
2013,03,25,16,31,9.70
2013,03,25,16,32,9.70
2013,03,25,16,33,9.70
2013,03,25,16,34,9.70
2013,03,25,16,35,9.80
2013,03,25,16,36,9.80
2013,03,25,16,37,9.80
2013,03,25,16,38,9.90
2013,03,25,16,39,9.90
2013,03,25,16,40,10.00
2013,03,25,16,41,10.10
2013,03,25,16,42,10.10
2013,03,25,16,43,10.20
2013,03,25,16,44,10.20
2013,03,25,16,45,10.20
2013,03,25,16,46,10.20
2013,03,25,16,47,10.20
2013,03,25,16,48,10.20
2013,03,25,16,49,10.20
2013,03,25,16,50,10.20
2013,03,25,16,51,10.20
2013,03,25,16,52,10.20
2013,03,25,16,53,10.20
2013,03,25,16,54,10.20
2013,03,25,16,55,10.20
2013,03,25,16,56,10.20
2013,03,25,16,57,10.30
2013,03,25,16,58,10.30
2013,03,25,16,59,10.30
2013,03,25,17,00,10.40
2013,03,25,17,01,10.40
2013,03,25,17,02,10.40
2013,03,25,17,03,10.40
2013,03,25,17,04,10.40
2013,03,25,17,05,10.40
2013,03,25,17,06,10.40
2013,03,25,17,07,10.40
2013,03,25,17,08,10.40
2013,03,25,17,09,10.40
2013,03,25,17,10,10.40
2013,03,25,17,11,10.40
2013,03,25,17,12,10.40
2013,03,25,17,13,10.40
2013,03,25,17,14,10.30
2013,03,25,17,15,10.30
2013,03,25,17,16,10.30
2013,03,25,17,17,10.30
2013,03,25,17,18,10.30
2013,03,25,17,19,10.30
2013,03,25,17,20,10.30
2013,03,25,17,21,10.30
2013,03,25,17,22,10.30
2013,03,25,17,23,10.30
2013,03,25,17,24,10.30
2013,03,25,17,25,10.30
2013,03,25,17,26,10.40
2013,03,25,17,27,10.40
2013,03,25,17,28,10.40
2013,03,25,17,29,10.40
2013,03,25,17,30,10.40
2013,03,25,17,31,10.40
2013,03,25,17,32,10.40
2013,03,25,17,33,10.40
2013,03,25,17,34,10.40
2013,03,25,17,35,10.40
2013,03,25,17,36,10.40
2013,03,25,17,37,10.40
2013,03,25,17,38,10.40
2013,03,25,17,39,10.40
2013,03,25,17,40,10.40
2013,03,25,17,41,10.50
2013,03,25,17,42,10.50
2013,03,25,17,43,10.50
2013,03,25,17,44,10.50
2013,03,25,17,45,10.60
2013,03,25,17,46,10.60
2013,03,25,17,47,10.60
2013,03,25,17,48,10.60
2013,03,25,17,49,10.60
2013,03,25,17,50,10.60
2013,03,25,17,51,10.60
2013,03,25,17,52,10.50
2013,03,25,17,53,10.50
2013,03,25,17,54,10.50
2013,03,25,17,55,10.50
2013,03,25,17,56,10.40
2013,03,25,17,57,10.40
2013,03,25,17,58,10.40
2013,03,25,17,59,10.40
2013,03,25,18,00,10.40
2013,03,25,18,01,10.40
2013,03,25,18,02,10.30
2013,03,25,18,03,10.30
2013,03,25,18,04,10.30
2013,03,25,18,05,10.30
2013,03,25,18,06,10.30
2013,03,25,18,07,10.30
2013,03,25,18,08,10.30
2013,03,25,18,09,10.30
2013,03,25,18,10,10.30
2013,03,25,18,11,10.30
2013,03,25,18,12,10.30
2013,03,25,18,13,10.30
2013,03,25,18,14,10.30
2013,03,25,18,15,10.30
2013,03,25,18,16,10.30
2013,03,25,18,17,10.30
2013,03,25,18,18,10.30
2013,03,25,18,19,10.30
2013,03,25,18,20,10.30
2013,03,25,18,21,10.30
2013,03,25,18,22,10.30
2013,03,25,18,23,10.30
2013,03,25,18,24,10.30
2013,03,25,18,25,10.30
2013,03,25,18,26,10.30
2013,03,25,18,27,10.30
2013,03,25,18,28,10.30
2013,03,25,18,29,10.30
2013,03,25,18,30,10.30
2013,03,25,18,31,10.30
2013,03,25,18,32,10.30
2013,03,25,18,33,10.30
2013,03,25,18,34,10.30
2013,03,25,18,35,10.30
2013,03,25,18,36,10.30
